Weather History for Russell, KS

Change the Weather History Date:

Friday, August 22, 2014

  Actual Average Record
Temperature  
Mean Temperature 88 °F -  
Max Temperature 100 °F 89 °F 102 °F (1956)
Min Temperature 77 °F 65 °F 52 °F (1966)
Cooling Degree Days 23    
Growing Degree Days 38 (Base 50)    
Moisture  
Dew Point 66 °F    
Average Humidity 54    
Maximum Humidity 76    
Minimum Humidity 30    
Precipitation  
Precipitation 0.00 in - - ()
Sea Level Pressure  
Sea Level Pressure 29.82 in    
Wind  
Wind Speed 8 mph (South)    
Max Wind Speed 20 mph    
Max Gust Speed 25 mph    
Visibility 10 miles    
Events Rain , Thunderstorm    
Averages and records for this station are not official NWS values.
T = Trace of Precipitation, MM = Missing Value Source: NWS Daily Summary

Daily Weather History Graph

Daily Weather History Graph

Search for Another Location

Airport:

Trip Planner

Search our weather history database for the weather conditions in past years. The results will help you decide how hot, cold, wet, or windy it might be!

Date:

Astronomy

Aug. 22, 2014 Rise Set
Actual Time 6:55 AM CDT 8:20 PM CDT
Civil Twilight 6:27 AM CDT 8:48 PM CDT
Nautical Twilight 5:53 AM CDT 9:21 PM CDT
Astronomical Twilight 5:18 AM CDT 9:56 PM CDT
Moon 4:19 AM CDT (8/22) 6:29 PM CDT (8/22)
Length of Visible Light 14h 20m
Length of Day
13h 25m
Waning Crescent, 7% of the Moon is Illuminated
Aug 22
Waning Crescent
Aug 25
New
Sep 2
First Quarter
Sep 8
Full
Sep 15
Last Quarter

Hourly Weather History & Observations

Time (CDT) Temp. Heat Index Dew Point Humidity Pressure Visibility Wind Dir Wind Speed Gust Speed Precip Events Conditions
12:53 AM 82.0 °F 84.1 °F 66.0 °F 58% 29.83 in 10.0 mi SE 8.1 mph - N/A   Partly Cloudy
1:53 AM 81.0 °F 82.7 °F 64.9 °F 58% 29.81 in 10.0 mi SSE 10.4 mph - N/A   Clear
2:53 AM 79.0 °F - 66.0 °F 64% 29.79 in 10.0 mi South 11.5 mph - N/A   Clear
3:53 AM 78.8 °F - 66.2 °F 65% 29.86 in 10.0 mi South 10.4 mph - N/A   Clear
4:53 AM 79.0 °F - 66.0 °F 64% 29.79 in 10.0 mi South 9.2 mph - N/A   Clear
5:53 AM 78.1 °F - 66.9 °F 68% 29.80 in 10.0 mi South 6.9 mph - N/A   Clear
6:53 AM 78.1 °F - 66.9 °F 68% 29.81 in 10.0 mi SSW 9.2 mph - N/A   Partly Cloudy
7:53 AM 78.1 °F - 66.0 °F 66% 29.81 in 10.0 mi SSW 10.4 mph - N/A   Clear
8:53 AM 79.0 °F - 66.0 °F 64% 29.84 in 10.0 mi WNW 5.8 mph - N/A   Partly Cloudy
9:24 AM 81.0 °F 83.0 °F 66.0 °F 60% 29.92 in 10.0 mi NW 4.6 mph - N/A Thunderstorm Clear
9:41 AM 82.0 °F 84.5 °F 66.9 °F 60% 29.92 in 10.0 mi North 5.8 mph - N/A   Clear
9:53 AM 82.0 °F 84.5 °F 66.9 °F 60% 29.86 in 10.0 mi Calm Calm - N/A   Partly Cloudy
10:53 AM 86.0 °F 88.8 °F 66.9 °F 53% 29.86 in 10.0 mi Calm Calm - N/A   Clear
11:53 AM 90.0 °F 91.7 °F 64.9 °F 43% 29.85 in 10.0 mi Calm Calm - N/A   Clear
12:53 PM 93.9 °F 95.6 °F 64.0 °F 37% 29.84 in 10.0 mi NNE 6.9 mph - N/A   Clear
1:53 PM 95.0 °F 97.4 °F 64.9 °F 37% 29.82 in 10.0 mi Variable 6.9 mph - N/A   Clear
2:53 PM 97.0 °F 100.4 °F 66.0 °F 36% 29.81 in 10.0 mi East 6.9 mph - N/A   Clear
3:53 PM 98.1 °F 100.7 °F 64.0 °F 33% 29.78 in 10.0 mi SSE 10.4 mph 17.3 mph N/A   Clear
4:53 PM 99.0 °F 100.5 °F 63.0 °F 30% 29.75 in 10.0 mi SSE 19.6 mph 25.3 mph N/A   Clear
5:53 PM 98.1 °F 99.6 °F 63.0 °F 31% 29.76 in 10.0 mi South 13.8 mph - N/A   Scattered Clouds
6:53 PM 95.0 °F 97.0 °F 64.0 °F 36% 29.76 in 10.0 mi South 12.7 mph - N/A   Partly Cloudy
7:53 PM 91.0 °F 92.6 °F 64.0 °F 41% 29.78 in 10.0 mi SSW 13.8 mph 21.9 mph N/A   Mostly Cloudy
8:12 PM 86.0 °F 86.8 °F 63.0 °F 46% 29.86 in 10.0 mi WSW 12.7 mph - 0.00 in Rain , Thunderstorm Light Rain
8:53 PM 81.0 °F 83.3 °F 66.9 °F 62% 29.79 in 10.0 mi South 8.1 mph - 0.00 in   Scattered Clouds
9:53 PM 77.0 °F - 69.1 °F 76% 29.83 in 10.0 mi North 10.4 mph - N/A   Mostly Cloudy
10:53 PM 77.0 °F - 68.0 °F 74% 29.81 in 10.0 mi East 6.9 mph - N/A   Clear
11:53 PM 77.0 °F - 66.9 °F 71% 29.82 in 10.0 mi NNE 6.9 mph - N/A   Clear